DateTimeUTC,F1_A11,F1_S11,BsB_S11,BsG_S11,BsR_S11,BbsB_S11,BbsG_S11,BbsR_S11,BaB_A11,BaG_A11,BaR_A11,Tu_S11,T_S11,Uu_S11,U_S11,P_S11,T1_A11
2021-08-12T16:00:00Z,00040200,20000000,,,,,,,0000.21,0000.02,-000.02,19.3,25.7,05.5,03.7,0676.0,31.1
2021-08-12T16:01:00Z,00040200,20000000,,,,,,,-000.29,-000.13,-000.25,19.3,25.7,05.5,03.7,0676.0,31.1
2021-08-12T16:02:00Z,00040200,20000000,,,,,,,-000.42,-000.37,0000.15,19.3,25.8,05.5,03.7,0676.0,31.1
2021-08-12T16:03:00Z,00040200,60000000,,,,,,,0000.46,0000.33,-000.11,19.3,25.8,05.5,03.7,0676.0,31.1
2021-08-12T16:04:00Z,00040200,40000000,0000.66,0000.73,0000.36,0000.27,0000.26,0000.17,0000.14,-000.00,0000.62,19.4,25.6,05.6,03.8,0677.0,31.1
2021-08-12T16:05:00Z,00040200,00000000,0001.11,0000.98,0000.52,0000.56,0000.42,0000.20,0000.14,0000.25,0000.08,19.5,25.6,05.6,03.9,0677.0,31.1
2021-08-12T16:06:00Z,00040200,00000000,0000.81,0001.23,0000.48,0000.56,0000.33,0000.18,0000.30,0000.10,-000.11,19.5,25.6,05.7,04.0,0677.0,31.1
2021-08-12T16:07:00Z,00040200,00000000,0001.43,0000.88,0000.55,0000.03,0000.16,0000.48,0000.09,0000.55,0000.56,19.5,25.6,05.7,03.9,0677.0,31.1
2021-08-12T16:08:00Z,00040200,00000000,0001.43,0000.74,0000.91,0000.23,0000.33,0000.40,0000.45,0000.24,-000.24,19.5,25.6,05.7,03.9,0677.1,31.1
2021-08-12T16:09:00Z,00040200,00000000,0000.90,0000.64,0000.57,0000.10,0000.32,0000.13,0000.05,-000.30,0000.25,19.5,25.6,05.7,03.9,0677.1,31.1
2021-08-12T16:10:00Z,00040200,00010000,0001.14,0001.05,0000.82,0000.22,0000.47,0000.50,0000.26,0000.66,0000.28,19.5,25.6,05.7,04.0,0677.0,31.1
2021-08-12T16:11:00Z,00040200,00000000,0001.12,0000.90,0000.56,-000.53,0000.09,0000.15,0000.25,0000.31,-000.03,19.5,25.6,05.7,04.0,0677.0,31.1
2021-08-12T16:12:00Z,00040200,00000000,0001.66,0000.91,0000.68,0000.91,0000.19,0000.53,0000.09,-000.35,0000.42,19.5,25.6,05.7,03.9,0677.0,31.1
2021-08-12T16:13:00Z,00040200,00000000,0000.10,0000.93,0000.23,0000.36,0000.46,0000.04,0000.30,0000.01,0000.20,19.5,25.6,05.6,03.9,0677.0,31.1
2021-08-12T16:14:00Z,00040200,00000000,0001.09,0000.99,0000.37,0000.25,0000.33,-000.01,0000.30,0000.44,-000.16,19.5,25.5,05.7,04.0,0677.1,31.1
2021-08-12T16:15:00Z,00040200,00000000,0000.90,0000.88,0000.74,-000.20,0000.32,0000.49,0000.10,0000.13,0000.27,19.5,25.6,05.7,04.0,0677.0,31.1
2021-08-12T16:16:00Z,00040200,00000000,0001.40,0000.94,0000.77,0000.43,0000.11,0000.26,0000.42,0000.41,0000.22,19.5,25.6,05.6,03.9,0677.1,31.1
2021-08-12T16:17:00Z,00040200,00000000,0001.02,0000.79,0000.75,0000.48,0000.58,0000.41,-000.29,0000.04,-000.05,19.5,25.6,05.5,03.8,0677.1,31.1
2021-08-12T16:18:00Z,00040200,00000000,0001.19,0000.75,0000.37,-000.16,0000.23,0000.05,0000.37,0000.12,-000.09,19.5,25.6,05.6,03.9,0677.1,31.1
2021-08-12T16:19:00Z,00040200,00000000,0000.92,0000.82,0000.30,0000.38,0000.08,0000.28,-000.12,-000.02,0000.38,19.5,25.6,05.7,03.9,0677.1,31.1
2021-08-12T16:20:00Z,00040200,00000000,0000.73,0000.91,0000.74,0000.29,-000.01,0000.32,0000.28,0000.57,0000.17,19.5,25.6,05.7,03.9,0677.1,31.1
2021-08-12T16:21:00Z,00040200,00000000,0000.49,0001.01,0000.36,0000.35,0000.44,0000.37,0000.00,-000.49,-000.50,19.5,25.5,05.7,03.9,0677.1,31.1
2021-08-12T16:22:00Z,00040200,00000000,0000.69,0000.72,0000.52,0000.60,0000.09,0000.35,0000.46,0000.64,0000.70,19.5,25.5,05.7,03.9,0677.1,31.1
2021-08-12T16:23:00Z,00040200,00000000,0000.96,0000.73,0000.55,0000.38,0000.11,0000.41,0000.04,-000.02,0000.09,19.5,25.6,05.7,04.0,0677.1,31.1
2021-08-12T16:24:00Z,00040200,00000000,0001.08,0000.74,0000.16,0000.55,0000.35,-000.08,0000.44,0000.36,0000.31,19.5,25.6,05.7,04.0,0677.1,31.1
2021-08-12T16:25:00Z,00040200,00000000,0000.23,0000.80,0000.48,0000.96,0000.07,0000.53,-000.07,0000.00,0000.07,19.5,25.5,05.7,03.9,0677.1,31.1
2021-08-12T16:26:00Z,00040200,00000000,0000.89,0000.62,0000.24,0000.28,0000.09,0000.15,0000.26,0000.67,-000.05,19.5,25.5,05.9,04.0,0677.1,31.1
2021-08-12T16:27:00Z,00040200,00000000,0000.50,0000.92,0000.54,-000.13,-000.07,-000.13,0000.22,0000.10,0000.16,19.5,25.5,05.8,04.0,0677.1,31.1
2021-08-12T16:28:00Z,00040200,00000000,0000.89,0000.42,0000.63,-000.66,0000.37,0000.30,0000.34,0000.35,0000.37,19.5,25.5,05.9,04.1,0677.1,31.1
2021-08-12T16:29:00Z,00040200,00000000,0000.67,0000.94,0000.50,0000.00,0000.06,0000.30,0000.56,0000.10,0000.38,19.5,25.6,05.9,04.1,0677.1,31.0
2021-08-12T16:30:00Z,00040200,00000000,0000.46,0000.84,0000.66,0000.52,0000.12,0000.28,0000.27,0000.53,0000.32,19.5,25.6,05.9,04.1,0677.1,31.1
2021-08-12T16:31:00Z,00040200,00000000,0000.37,0000.79,0000.32,0000.47,0000.53,-000.20,-000.10,0000.04,0000.19,19.5,25.5,05.9,04.1,0677.1,31.0
2021-08-12T16:32:00Z,00040200,00000000,0000.78,0000.66,0000.47,0000.51,0000.31,0000.50,0000.35,0000.46,-000.07,19.5,25.5,06.1,04.2,0677.1,31.0
2021-08-12T16:33:00Z,00040200,00000000,0000.87,0000.93,0000.56,0000.97,0000.12,0000.34,0000.27,0000.20,0000.55,19.5,25.6,05.9,04.1,0677.1,31.1
2021-08-12T16:34:00Z,00040200,00000000,0000.90,0000.68,0000.44,0000.71,0000.14,0000.28,0000.37,0000.20,0000.03,19.5,25.6,06.1,04.2,0677.1,31.1
2021-08-12T16:35:00Z,00040200,00000000,0001.45,0001.01,0000.41,0000.56,0000.09,0000.23,0000.32,-000.09,0000.02,19.5,25.5,06.1,04.2,0677.1,31.1
2021-08-12T16:36:00Z,00040200,00000000,0000.93,0001.40,0000.75,0000.11,0000.25,0000.42,0000.14,0000.41,0000.44,19.5,25.5,06.1,04.2,0677.1,31.1
2021-08-12T16:37:00Z,00040200,00000000,0000.66,0001.11,0000.67,0000.46,0000.09,0000.32,0000.79,0000.10,0000.36,19.5,25.6,06.2,04.3,0677.1,31.1
2021-08-12T16:38:00Z,00040200,00000000,0001.77,0001.64,0000.59,-000.00,0000.17,0000.03,0000.36,0000.94,0000.47,19.5,25.6,06.2,04.3,0677.1,31.1
2021-08-12T16:39:00Z,00040200,00000000,0001.75,0001.48,0001.14,0000.35,0000.26,0000.29,0000.56,-000.02,0000.33,19.5,25.5,06.3,04.4,0677.0,31.1
2021-08-12T16:40:00Z,00040200,00000000,0001.74,0001.39,0000.72,0000.05,0000.37,-000.37,-000.06,0000.40,-000.07,19.4,25.5,06.2,04.3,0677.1,31.1
2021-08-12T16:41:00Z,00040200,00000000,0001.64,0001.45,0000.72,0000.34,0000.02,-000.16,0000.28,0000.46,0000.33,19.4,25.5,06.3,04.3,0677.0,31.1
2021-08-12T16:42:00Z,00040200,00000000,0001.50,0001.39,0000.90,0000.65,0000.41,0000.09,0000.64,0000.09,0000.33,19.4,25.5,06.1,04.2,0677.0,31.1
2021-08-12T16:43:00Z,00040200,00000000,0001.55,0001.50,0001.29,0000.74,0000.17,0000.52,0000.62,0000.14,0000.04,19.4,25.5,06.4,04.4,0677.1,31.1
2021-08-12T16:44:00Z,00040200,00000000,0001.30,0001.24,0000.94,-000.12,0000.29,0000.31,-000.34,0000.57,0000.55,19.4,25.5,06.4,04.4,0677.0,31.0
2021-08-12T16:45:00Z,00040200,00000000,0001.32,0001.31,0000.50,0000.04,0000.32,0000.11,0000.45,0000.21,0000.10,19.4,25.5,06.3,04.4,0677.0,31.1
2021-08-12T16:46:00Z,00040200,00000000,0001.19,0001.39,0000.78,0000.18,0000.11,0000.21,0000.52,0000.55,0000.20,19.4,25.5,06.3,04.3,0677.0,31.1
2021-08-12T16:47:00Z,00040200,00000000,0001.07,0001.40,0000.90,0000.89,0000.26,0000.24,-000.20,-000.53,-000.11,19.4,25.5,06.3,04.4,0677.0,31.1
2021-08-12T16:48:00Z,00040200,00000000,0001.20,0001.17,0000.52,0000.49,0000.45,0000.17,0000.92,0000.94,0000.53,19.4,25.5,06.2,04.3,0677.0,31.1
2021-08-12T16:49:00Z,00040200,00000000,0001.89,0001.36,0000.46,0000.45,0000.50,0000.31,-000.11,0000.34,0000.56,19.4,25.5,06.3,04.4,0677.0,31.1
2021-08-12T16:50:00Z,00040200,00000000,0001.44,0001.44,0000.64,0000.29,0000.22,0000.07,-000.06,0000.08,0000.01,19.4,25.5,06.3,04.3,0677.0,31.1
2021-08-12T16:51:00Z,00040200,00000000,0001.91,0000.99,0001.05,0000.53,0000.24,0000.40,0000.42,0000.18,0000.05,19.4,25.5,06.3,04.4,0677.0,31.1
2021-08-12T16:52:00Z,00040200,00000000,0002.04,0001.14,0000.41,0000.63,0000.47,0000.08,0000.55,0000.31,0000.37,19.4,25.5,06.3,04.3,0677.0,31.1
2021-08-12T16:53:00Z,00040200,00000000,0001.69,0001.22,0000.73,0000.10,0000.59,0000.18,0000.11,0000.11,-000.13,19.4,25.5,06.3,04.3,0677.0,31.0
2021-08-12T16:54:00Z,00040200,00000000,0001.64,0001.38,0000.82,0000.01,0000.19,0000.17,0000.04,0000.26,0000.35,19.4,25.5,06.3,04.3,0677.0,31.1
2021-08-12T16:55:00Z,00040200,00000000,0001.05,0001.42,0000.55,0000.00,0000.23,-000.19,0000.54,0000.44,-000.16,19.4,25.5,06.4,04.4,0677.0,31.1
2021-08-12T16:56:00Z,00040200,00000000,0000.95,0001.00,0000.51,0000.62,0000.33,0000.60,0000.10,0000.03,0000.72,19.4,25.5,06.3,04.3,0677.0,31.1
2021-08-12T16:57:00Z,00040200,40000000,,,,,,,-000.02,0000.23,-000.36,19.4,25.5,06.4,04.4,0677.0,31.1
2021-08-12T16:58:00Z,00040200,60000000,,,,,,,-000.07,-000.28,-000.15,19.2,25.6,06.3,04.3,0676.0,31.0
2021-08-12T16:59:00Z,00040200,20000000,,,,,,,-000.01,-000.01,0000.10,19.2,25.7,06.1,04.1,0676.0,31.1
